owner,sensor,date,latitude,longitude,vertical_datum,direction_of_sea_water_velocity,sea_water_speed,upward_sea_water_velocity,qcFlag 
WAVCIS,ioos:station:WAVCIS:CSI10A:1,2019-09-01T00:06:06Z,28.9192,-90.7744,6.4,215.133,23.6,-99999.0,'11111222,11111222,99999999' 
WAVCIS,ioos:station:WAVCIS:CSI10A:1,2019-09-01T01:06:06Z,28.9192,-90.7744,6.4,198.717,34.6,-99999.0,'11111222,11111222,99999999' 
WAVCIS,ioos:station:WAVCIS:CSI10A:1,2019-09-01T02:06:06Z,28.9192,-90.7744,6.4,209.405,25.4,-99999.0,'11111222,11111222,99999999' 
WAVCIS,ioos:station:WAVCIS:CSI10A:1,2019-09-01T03:06:06Z,28.9192,-90.7744,6.4,212.693,28.5,-99999.0,'11111222,11111222,99999999' 
WAVCIS,ioos:station:WAVCIS:CSI10A:1,2019-09-01T04:06:06Z,28.9192,-90.7744,6.4,215.309,29.5,-99999.0,'11111222,11111222,99999999' 
WAVCIS,ioos:station:WAVCIS:CSI10A:1,2019-09-01T05:06:06Z,28.9192,-90.7744,6.4,217.925,30.6,-99999.0,'11111222,11111222,99999999' 
WAVCIS,ioos:station:WAVCIS:CSI10A:1,2019-09-01T06:06:06Z,28.9192,-90.7744,6.4,226.776,28.8,-99999.0,'11111222,11111222,99999999' 
WAVCIS,ioos:station:WAVCIS:CSI10A:1,2019-09-01T07:06:06Z,28.9192,-90.7744,6.4,230.396,27.4,-99999.0,'11111222,11111222,99999999' 
WAVCIS,ioos:station:WAVCIS:CSI10A:1,2019-09-01T08:06:06Z,28.9192,-90.7744,6.4,228.485,20.0,-99999.0,'11111222,11111222,99999999' 
WAVCIS,ioos:station:WAVCIS:CSI10A:1,2019-09-01T09:06:06Z,28.9192,-90.7744,6.4,226.5,25.6,-99999.0,'11111222,11111222,99999999' 
WAVCIS,ioos:station:WAVCIS:CSI10A:1,2019-09-01T10:06:06Z,28.9192,-90.7744,6.4,226.5,24.2,-99999.0,'11111222,11111222,99999999' 
WAVCIS,ioos:station:WAVCIS:CSI10A:1,2019-09-01T11:06:06Z,28.9192,-90.7744,6.4,225.434,21.6,-99999.0,'11111222,11111222,99999999' 
WAVCIS,ioos:station:WAVCIS:CSI10A:1,2019-09-01T12:06:06Z,28.9192,-90.7744,6.4,224.121,18.7,-99999.0,'11111222,11111222,99999999' 
WAVCIS,ioos:station:WAVCIS:CSI10A:1,2019-09-01T13:06:06Z,28.9192,-90.7744,6.4,222.809,15.8,-99999.0,'11111222,11111222,99999999' 
WAVCIS,ioos:station:WAVCIS:CSI10A:1,2019-09-01T14:06:06Z,28.9192,-90.7744,6.4,216.209,19.0,-99999.0,'11111222,11111222,99999999' 
WAVCIS,ioos:station:WAVCIS:CSI10A:1,2019-09-01T15:06:06Z,28.9192,-90.7744,6.4,212.986,24.0,-99999.0,'11111222,11111222,99999999' 
WAVCIS,ioos:station:WAVCIS:CSI10A:1,2019-09-01T16:06:06Z,28.9192,-90.7744,6.4,214.013,28.4,-99999.0,'11111222,11111222,99999999' 
WAVCIS,ioos:station:WAVCIS:CSI10A:1,2019-09-01T17:06:06Z,28.9192,-90.7744,6.4,217.407,23.1,-99999.0,'11111222,11111222,99999999' 
WAVCIS,ioos:station:WAVCIS:CSI10A:1,2019-09-01T18:06:06Z,28.9192,-90.7744,6.4,205.833,14.2,-99999.0,'11111222,11111222,99999999' 
WAVCIS,ioos:station:WAVCIS:CSI10A:1,2019-09-01T19:06:06Z,28.9192,-90.7744,6.4,216.982,18.8,-99999.0,'11111222,11111222,99999999' 
WAVCIS,ioos:station:WAVCIS:CSI10A:1,2019-09-01T20:06:06Z,28.9192,-90.7744,6.4,219.067,20.2,-99999.0,'11111222,11111222,99999999' 
WAVCIS,ioos:station:WAVCIS:CSI10A:1,2019-09-01T21:06:06Z,28.9192,-90.7744,6.4,214.323,24.4,-99999.0,'11111222,11111222,99999999' 
WAVCIS,ioos:station:WAVCIS:CSI10A:1,2019-09-01T22:06:06Z,28.9192,-90.7744,6.4,224.11,29.4,-99999.0,'11111222,11111222,99999999' 
WAVCIS,ioos:station:WAVCIS:CSI10A:1,2019-09-01T23:06:06Z,28.9192,-90.7744,6.4,219.358,36.8,-99999.0,'11111222,11111222,99999999' 
WAVCIS,ioos:station:WAVCIS:CSI10A:1,2019-09-02T00:06:06Z,28.9192,-90.7744,6.4,223.859,29.2,-99999.0,'11111222,11111222,99999999' 
WAVCIS,ioos:station:WAVCIS:CSI10A:1,2019-09-02T01:06:06Z,28.9192,-90.7744,6.4,218.696,31.3,-99999.0,'11111222,11111222,99999999' 
WAVCIS,ioos:station:WAVCIS:CSI10A:1,2019-09-02T02:06:06Z,28.9192,-90.7744,6.4,210.912,32.8,-99999.0,'11111222,11111222,99999999' 
WAVCIS,ioos:station:WAVCIS:CSI10A:1,2019-09-02T03:06:06Z,28.9192,-90.7744,6.4,206.917,34.8,-99999.0,'11111222,11111222,99999999' 
WAVCIS,ioos:station:WAVCIS:CSI10A:1,2019-09-02T04:06:06Z,28.9192,-90.7744,6.4,205.726,26.4,-99999.0,'11111222,11111222,99999999' 
WAVCIS,ioos:station:WAVCIS:CSI10A:1,2019-09-02T05:06:06Z,28.9192,-90.7744,6.4,212.162,30.4,-99999.0,'11111222,11111222,99999999' 
WAVCIS,ioos:station:WAVCIS:CSI10A:1,2019-09-02T06:06:06Z,28.9192,-90.7744,6.4,216.259,34.8,-99999.0,'11111222,11111222,99999999' 
WAVCIS,ioos:station:WAVCIS:CSI10A:1,2019-09-02T07:06:06Z,28.9192,-90.7744,6.4,227.514,36.4,-99999.0,'11111222,11111222,99999999' 
WAVCIS,ioos:station:WAVCIS:CSI10A:1,2019-09-02T08:06:06Z,28.9192,-90.7744,6.4,221.107,33.4,-99999.0,'11111222,11111222,99999999' 
WAVCIS,ioos:station:WAVCIS:CSI10A:1,2019-09-02T09:06:06Z,28.9192,-90.7744,6.4,221.204,26.8,-99999.0,'11111222,11111222,99999999' 
WAVCIS,ioos:station:WAVCIS:CSI10A:1,2019-09-02T10:06:06Z,28.9192,-90.7744,6.4,215.967,29.0,-99999.0,'11111222,11111222,99999999' 
WAVCIS,ioos:station:WAVCIS:CSI10A:1,2019-09-02T11:06:06Z,28.9192,-90.7744,6.4,213.197,33.2,-99999.0,'11111222,11111222,99999999' 
WAVCIS,ioos:station:WAVCIS:CSI10A:1,2019-09-02T12:06:06Z,28.9192,-90.7744,6.4,211.569,35.9,-99999.0,'11111222,11111222,99999999' 
WAVCIS,ioos:station:WAVCIS:CSI10A:1,2019-09-02T13:06:06Z,28.9192,-90.7744,6.4,216.983,34.2,-99999.0,'11111222,11111222,99999999' 
WAVCIS,ioos:station:WAVCIS:CSI10A:1,2019-09-02T14:06:06Z,28.9192,-90.7744,6.4,214.665,40.2,-99999.0,'11111222,11111222,99999999' 
WAVCIS,ioos:station:WAVCIS:CSI10A:1,2019-09-02T15:06:06Z,28.9192,-90.7744,6.4,215.175,40.9,-99999.0,'11111222,11111222,99999999' 
WAVCIS,ioos:station:WAVCIS:CSI10A:1,2019-09-02T16:06:06Z,28.9192,-90.7744,6.4,215.684,41.6,-99999.0,'11111222,11111222,99999999' 
WAVCIS,ioos:station:WAVCIS:CSI10A:1,2019-09-02T17:06:06Z,28.9192,-90.7744,6.4,216.765,37.7,-99999.0,'11111222,11111222,99999999' 
WAVCIS,ioos:station:WAVCIS:CSI10A:1,2019-09-02T18:06:06Z,28.9192,-90.7744,6.4,218.776,26.3,-99999.0,'11111222,11111222,99999999' 
WAVCIS,ioos:station:WAVCIS:CSI10A:1,2019-09-02T19:06:06Z,28.9192,-90.7744,6.4,215.031,34.3,-99999.0,'11111222,11111222,99999999' 
WAVCIS,ioos:station:WAVCIS:CSI10A:1,2019-09-02T20:06:06Z,28.9192,-90.7744,6.4,220.228,27.0,-99999.0,'11111222,11111222,99999999' 
WAVCIS,ioos:station:WAVCIS:CSI10A:1,2019-09-02T21:06:06Z,28.9192,-90.7744,6.4,219.161,26.8,-99999.0,'11111222,11111222,99999999' 
WAVCIS,ioos:station:WAVCIS:CSI10A:1,2019-09-02T22:06:06Z,28.9192,-90.7744,6.4,218.095,26.6,-99999.0,'11111222,11111222,99999999' 
WAVCIS,ioos:station:WAVCIS:CSI10A:1,2019-09-02T23:06:06Z,28.9192,-90.7744,6.4,217.029,26.4,-99999.0,'11111222,11111222,99999999' 
WAVCIS,ioos:station:WAVCIS:CSI10A:1,2019-09-03T00:06:06Z,28.9192,-90.7744,6.4,215.963,26.2,-99999.0,'11111222,11111222,99999999' 
WAVCIS,ioos:station:WAVCIS:CSI10A:1,2019-09-03T01:06:06Z,28.9192,-90.7744,6.4,214.896,26.1,-99999.0,'11111222,11111222,99999999' 
WAVCIS,ioos:station:WAVCIS:CSI10A:1,2019-09-03T02:06:06Z,28.9192,-90.7744,6.4,215.449,26.3,-99999.0,'11111222,11111222,99999999' 
WAVCIS,ioos:station:WAVCIS:CSI10A:1,2019-09-03T03:06:06Z,28.9192,-90.7744,6.4,214.87,23.4,-99999.0,'11111222,11111222,99999999' 
WAVCIS,ioos:station:WAVCIS:CSI10A:1,2019-09-03T04:06:06Z,28.9192,-90.7744,6.4,223.541,22.3,-99999.0,'11111222,11111222,99999999' 
WAVCIS,ioos:station:WAVCIS:CSI10A:1,2019-09-03T05:06:06Z,28.9192,-90.7744,6.4,219.856,24.4,-99999.0,'11111222,11111222,99999999' 
WAVCIS,ioos:station:WAVCIS:CSI10A:1,2019-09-03T06:06:06Z,28.9192,-90.7744,6.4,217.736,22.2,-99999.0,'11111222,11111222,99999999' 
WAVCIS,ioos:station:WAVCIS:CSI10A:1,2019-09-03T07:06:06Z,28.9192,-90.7744,6.4,217.5,31.3,-99999.0,'11111222,11111222,99999999' 
WAVCIS,ioos:station:WAVCIS:CSI10A:1,2019-09-03T08:06:06Z,28.9192,-90.7744,6.4,220.411,27.6,-99999.0,'11111222,11111222,99999999' 
WAVCIS,ioos:station:WAVCIS:CSI10A:1,2019-09-03T09:06:06Z,28.9192,-90.7744,6.4,213.662,26.4,-99999.0,'11111222,11111222,99999999' 
WAVCIS,ioos:station:WAVCIS:CSI10A:1,2019-09-03T10:06:06Z,28.9192,-90.7744,6.4,213.014,33.4,-99999.0,'11111222,11111222,99999999' 
WAVCIS,ioos:station:WAVCIS:CSI10A:1,2019-09-03T11:06:06Z,28.9192,-90.7744,6.4,209.269,37.8,-99999.0,'11111222,11111222,99999999' 
WAVCIS,ioos:station:WAVCIS:CSI10A:1,2019-09-03T12:06:06Z,28.9192,-90.7744,6.4,210.639,40.5,-99999.0,'11111222,11111222,99999999' 
WAVCIS,ioos:station:WAVCIS:CSI10A:1,2019-09-03T13:06:06Z,28.9192,-90.7744,6.4,205.584,53.7,-99999.0,'11111222,11111222,99999999' 
WAVCIS,ioos:station:WAVCIS:CSI10A:1,2019-09-03T14:06:06Z,28.9192,-90.7744,6.4,213.023,39.0,-99999.0,'11111222,11111222,99999999' 
WAVCIS,ioos:station:WAVCIS:CSI10A:1,2019-09-03T15:06:06Z,28.9192,-90.7744,6.4,219.0,31.0,-99999.0,'11111222,11111222,99999999' 
WAVCIS,ioos:station:WAVCIS:CSI10A:1,2019-09-03T16:06:06Z,28.9192,-90.7744,6.4,215.974,25.1,-99999.0,'11111222,11111222,99999999' 
WAVCIS,ioos:station:WAVCIS:CSI10A:1,2019-09-03T17:06:06Z,28.9192,-90.7744,6.4,215.664,32.9,-99999.0,'11111222,11111222,99999999' 
WAVCIS,ioos:station:WAVCIS:CSI10A:1,2019-09-03T18:06:06Z,28.9192,-90.7744,6.4,214.208,30.8,-99999.0,'11111222,11111222,99999999' 
WAVCIS,ioos:station:WAVCIS:CSI10A:1,2019-09-03T19:06:06Z,28.9192,-90.7744,6.4,221.711,22.1,-99999.0,'11111222,11111222,99999999' 
WAVCIS,ioos:station:WAVCIS:CSI10A:1,2019-09-03T20:06:06Z,28.9192,-90.7744,6.4,213.268,30.6,-99999.0,'11111222,11111222,99999999' 
WAVCIS,ioos:station:WAVCIS:CSI10A:1,2019-09-03T21:06:06Z,28.9192,-90.7744,6.4,216.293,26.2,-99999.0,'11111222,11111222,99999999' 
WAVCIS,ioos:station:WAVCIS:CSI10A:1,2019-09-03T22:06:06Z,28.9192,-90.7744,6.4,219.317,21.9,-99999.0,'11111222,11111222,99999999' 
WAVCIS,ioos:station:WAVCIS:CSI10A:1,2019-09-03T23:06:06Z,28.9192,-90.7744,6.4,221.377,18.6,-99999.0,'11111222,11111222,99999999' 
WAVCIS,ioos:station:WAVCIS:CSI10A:1,2019-09-04T00:06:06Z,28.9192,-90.7744,6.4,218.44,21.5,-99999.0,'11111222,11111222,99999999' 
WAVCIS,ioos:station:WAVCIS:CSI10A:1,2019-09-04T01:06:06Z,28.9192,-90.7744,6.4,221.613,19.9,-99999.0,'11111222,11111222,99999999' 
WAVCIS,ioos:station:WAVCIS:CSI10A:1,2019-09-04T02:06:06Z,28.9192,-90.7744,6.4,230.944,15.5,-99999.0,'11111222,11111222,99999999' 
WAVCIS,ioos:station:WAVCIS:CSI10A:1,2019-09-04T03:06:06Z,28.9192,-90.7744,6.4,227.064,14.4,-99999.0,'11111222,11111222,99999999' 
WAVCIS,ioos:station:WAVCIS:CSI10A:1,2019-09-04T04:06:06Z,28.9192,-90.7744,6.4,214.125,19.5,-99999.0,'11111222,11111222,99999999' 
WAVCIS,ioos:station:WAVCIS:CSI10A:1,2019-09-04T05:06:06Z,28.9192,-90.7744,6.4,213.062,26.6,-99999.0,'11111222,11111222,99999999' 
WAVCIS,ioos:station:WAVCIS:CSI10A:1,2019-09-04T06:06:06Z,28.9192,-90.7744,6.4,222.07,19.1,-99999.0,'11111222,11111222,99999999' 
WAVCIS,ioos:station:WAVCIS:CSI10A:1,2019-09-04T07:06:06Z,28.9192,-90.7744,6.4,222.629,20.3,-99999.0,'11111222,11111222,99999999' 
WAVCIS,ioos:station:WAVCIS:CSI10A:1,2019-09-04T08:06:06Z,28.9192,-90.7744,6.4,223.188,21.4,-99999.0,'11111222,11111222,99999999' 
WAVCIS,ioos:station:WAVCIS:CSI10A:1,2019-09-04T09:06:06Z,28.9192,-90.7744,6.4,225.924,20.9,-99999.0,'11111222,11111222,99999999' 
WAVCIS,ioos:station:WAVCIS:CSI10A:1,2019-09-04T10:06:06Z,28.9192,-90.7744,6.4,228.0,21.1,-99999.0,'11111222,11111222,99999999' 
WAVCIS,ioos:station:WAVCIS:CSI10A:1,2019-09-04T11:06:06Z,28.9192,-90.7744,6.4,228.0,22.8,-99999.0,'11111222,11111222,99999999' 
WAVCIS,ioos:station:WAVCIS:CSI10A:1,2019-09-04T12:06:06Z,28.9192,-90.7744,6.4,228.0,24.6,-99999.0,'11111222,11111222,99999999' 
WAVCIS,ioos:station:WAVCIS:CSI10A:1,2019-09-04T13:06:06Z,28.9192,-90.7744,6.4,229.381,25.0,-99999.0,'11111222,11111222,99999999' 
WAVCIS,ioos:station:WAVCIS:CSI10A:1,2019-09-04T14:06:06Z,28.9192,-90.7744,6.4,219.579,35.0,-99999.0,'11111222,11111222,99999999' 
WAVCIS,ioos:station:WAVCIS:CSI10A:1,2019-09-04T15:06:06Z,28.9192,-90.7744,6.4,215.278,32.4,-99999.0,'11111222,11111222,99999999' 
WAVCIS,ioos:station:WAVCIS:CSI10A:1,2019-09-04T16:06:06Z,28.9192,-90.7744,6.4,213.388,36.2,-99999.0,'11111222,11111222,99999999' 
WAVCIS,ioos:station:WAVCIS:CSI10A:1,2019-09-04T17:06:06Z,28.9192,-90.7744,6.4,218.451,37.9,-99999.0,'11111222,11111222,99999999' 
WAVCIS,ioos:station:WAVCIS:CSI10A:1,2019-09-04T18:06:06Z,28.9192,-90.7744,6.4,217.976,28.1,-99999.0,'11111222,11111222,99999999' 
WAVCIS,ioos:station:WAVCIS:CSI10A:1,2019-09-04T19:06:06Z,28.9192,-90.7744,6.4,222.573,35.9,-99999.0,'11111222,11111222,99999999' 
WAVCIS,ioos:station:WAVCIS:CSI10A:1,2019-09-04T20:06:06Z,28.9192,-90.7744,6.4,227.007,31.7,-99999.0,'11111222,11111222,99999999' 
WAVCIS,ioos:station:WAVCIS:CSI10A:1,2019-09-04T21:06:06Z,28.9192,-90.7744,6.4,230.846,32.7,-99999.0,'11111222,11111222,99999999' 
WAVCIS,ioos:station:WAVCIS:CSI10A:1,2019-09-04T22:06:06Z,28.9192,-90.7744,6.4,229.5,29.4,-99999.0,'11111222,11111222,99999999' 
WAVCIS,ioos:station:WAVCIS:CSI10A:1,2019-09-04T23:06:06Z,28.9192,-90.7744,6.4,245.867,28.1,-99999.0,'11111222,11111222,99999999' 
WAVCIS,ioos:station:WAVCIS:CSI10A:1,2019-09-05T00:06:06Z,28.9192,-90.7744,6.4,274.954,25.6,-99999.0,'11111222,11111222,99999999' 
WAVCIS,ioos:station:WAVCIS:CSI10A:1,2019-09-05T01:06:06Z,28.9192,-90.7744,6.4,274.083,28.6,-99999.0,'11111222,11111222,99999999' 
WAVCIS,ioos:station:WAVCIS:CSI10A:1,2019-09-05T02:06:06Z,28.9192,-90.7744,6.4,299.581,19.0,-99999.0,'11111222,11111222,99999999' 
WAVCIS,ioos:station:WAVCIS:CSI10A:1,2019-09-05T03:06:06Z,28.9192,-90.7744,6.4,302.606,16.4,-99999.0,'11111222,11111222,99999999' 
WAVCIS,ioos:station:WAVCIS:CSI10A:1,2019-09-05T04:06:06Z,28.9192,-90.7744,6.4,350.173,24.4,-99999.0,'11111222,11111222,99999999' 
WAVCIS,ioos:station:WAVCIS:CSI10A:1,2019-09-05T05:06:06Z,28.9192,-90.7744,6.4,177.6,9.0,-99999.0,'11111222,11111222,99999999' 
WAVCIS,ioos:station:WAVCIS:CSI10A:1,2019-09-05T06:06:06Z,28.9192,-90.7744,6.4,78.261,19.0,-99999.0,'11111222,11111222,99999999' 
WAVCIS,ioos:station:WAVCIS:CSI10A:1,2019-09-05T07:06:06Z,28.9192,-90.7744,6.4,101.032,24.8,-99999.0,'11111222,11111222,99999999' 
WAVCIS,ioos:station:WAVCIS:CSI10A:1,2019-09-05T08:06:06Z,28.9192,-90.7744,6.4,121.667,22.4,-99999.0,'11111222,11111222,99999999' 
WAVCIS,ioos:station:WAVCIS:CSI10A:1,2019-09-05T09:06:06Z,28.9192,-90.7744,6.4,152.017,24.5,-99999.0,'11111222,11111222,99999999' 
WAVCIS,ioos:station:WAVCIS:CSI10A:1,2019-09-05T10:06:06Z,28.9192,-90.7744,6.4,167.115,26.3,-99999.0,'11111222,11111222,99999999' 
WAVCIS,ioos:station:WAVCIS:CSI10A:1,2019-09-05T11:06:06Z,28.9192,-90.7744,6.4,171.897,22.5,-99999.0,'11111222,11111222,99999999' 
WAVCIS,ioos:station:WAVCIS:CSI10A:1,2019-09-05T12:06:06Z,28.9192,-90.7744,6.4,155.928,20.6,-99999.0,'11111222,11111222,99999999' 
WAVCIS,ioos:station:WAVCIS:CSI10A:1,2019-09-05T13:06:06Z,28.9192,-90.7744,6.4,173.22,24.6,-99999.0,'11111222,11111222,99999999' 
WAVCIS,ioos:station:WAVCIS:CSI10A:1,2019-09-05T14:06:06Z,28.9192,-90.7744,6.4,175.126,20.0,-99999.0,'11111222,11111222,99999999' 
WAVCIS,ioos:station:WAVCIS:CSI10A:1,2019-09-05T15:06:06Z,28.9192,-90.7744,6.4,174.521,20.0,-99999.0,'11111222,11111222,99999999' 
WAVCIS,ioos:station:WAVCIS:CSI10A:1,2019-09-05T16:06:06Z,28.9192,-90.7744,6.4,176.735,20.5,-99999.0,'11111222,11111222,99999999' 
WAVCIS,ioos:station:WAVCIS:CSI10A:1,2019-09-05T17:06:06Z,28.9192,-90.7744,6.4,196.669,23.8,-99999.0,'11111222,11111222,99999999' 
WAVCIS,ioos:station:WAVCIS:CSI10A:1,2019-09-05T18:06:06Z,28.9192,-90.7744,6.4,206.43,25.0,-99999.0,'11111222,11111222,99999999' 
WAVCIS,ioos:station:WAVCIS:CSI10A:1,2019-09-05T19:06:06Z,28.9192,-90.7744,6.4,210.686,18.3,-99999.0,'11111222,11111222,99999999' 
WAVCIS,ioos:station:WAVCIS:CSI10A:1,2019-09-05T20:06:06Z,28.9192,-90.7744,6.4,213.276,13.6,-99999.0,'11111222,11111222,99999999' 
WAVCIS,ioos:station:WAVCIS:CSI10A:1,2019-09-05T21:06:06Z,28.9192,-90.7744,6.4,201.1,11.4,-99999.0,'11111222,11111222,99999999' 
WAVCIS,ioos:station:WAVCIS:CSI10A:1,2019-09-05T22:06:06Z,28.9192,-90.7744,6.4,191.578,8.0,-99999.0,'11111222,11111222,99999999' 
WAVCIS,ioos:station:WAVCIS:CSI10A:1,2019-09-05T23:06:06Z,28.9192,-90.7744,6.4,176.033,8.4,-99999.0,'11111222,11111222,99999999' 
WAVCIS,ioos:station:WAVCIS:CSI10A:1,2019-09-06T00:06:06Z,28.9192,-90.7744,6.4,160.487,8.7,-99999.0,'11111222,11111222,99999999' 
WAVCIS,ioos:station:WAVCIS:CSI10A:1,2019-09-06T01:06:06Z,28.9192,-90.7744,6.4,144.941,9.0,-99999.0,'11111222,11111222,99999999' 
WAVCIS,ioos:station:WAVCIS:CSI10A:1,2019-09-06T02:06:06Z,28.9192,-90.7744,6.4,148.04,11.8,-99999.0,'11111222,11111222,99999999' 
WAVCIS,ioos:station:WAVCIS:CSI10A:1,2019-09-06T03:06:06Z,28.9192,-90.7744,6.4,119.86,18.3,-99999.0,'11111222,11111222,99999999' 
WAVCIS,ioos:station:WAVCIS:CSI10A:1,2019-09-06T04:06:06Z,28.9192,-90.7744,6.4,110.434,25.1,-99999.0,'11111222,11111222,99999999' 
WAVCIS,ioos:station:WAVCIS:CSI10A:1,2019-09-06T05:06:06Z,28.9192,-90.7744,6.4,116.062,28.0,-99999.0,'11111222,11111222,99999999' 
WAVCIS,ioos:station:WAVCIS:CSI10A:1,2019-09-06T06:06:06Z,28.9192,-90.7744,6.4,123.591,26.4,-99999.0,'11111222,11111222,99999999' 
WAVCIS,ioos:station:WAVCIS:CSI10A:1,2019-09-06T07:06:06Z,28.9192,-90.7744,6.4,131.238,19.5,-99999.0,'11111222,11111222,99999999' 
WAVCIS,ioos:station:WAVCIS:CSI10A:1,2019-09-06T08:06:06Z,28.9192,-90.7744,6.4,116.813,21.1,-99999.0,'11111222,11111222,99999999' 
WAVCIS,ioos:station:WAVCIS:CSI10A:1,2019-09-06T09:06:06Z,28.9192,-90.7744,6.4,128.494,23.0,-99999.0,'11111222,11111222,99999999' 
WAVCIS,ioos:station:WAVCIS:CSI10A:1,2019-09-06T10:06:06Z,28.9192,-90.7744,6.4,142.211,26.1,-99999.0,'11111222,11111222,99999999' 
WAVCIS,ioos:station:WAVCIS:CSI10A:1,2019-09-06T11:06:06Z,28.9192,-90.7744,6.4,155.929,29.3,-99999.0,'11111222,11111222,99999999' 
WAVCIS,ioos:station:WAVCIS:CSI10A:1,2019-09-06T12:06:06Z,28.9192,-90.7744,6.4,156.916,27.2,-99999.0,'11111222,11111222,99999999' 
WAVCIS,ioos:station:WAVCIS:CSI10A:1,2019-09-06T13:06:06Z,28.9192,-90.7744,6.4,156.89,24.4,-99999.0,'11111222,11111222,99999999' 
WAVCIS,ioos:station:WAVCIS:CSI10A:1,2019-09-06T14:06:06Z,28.9192,-90.7744,6.4,165.426,25.0,-99999.0,'11111222,11111222,99999999' 
WAVCIS,ioos:station:WAVCIS:CSI10A:1,2019-09-06T15:06:06Z,28.9192,-90.7744,6.4,173.962,25.7,-99999.0,'11111222,11111222,99999999' 
WAVCIS,ioos:station:WAVCIS:CSI10A:1,2019-09-06T16:06:06Z,28.9192,-90.7744,6.4,177.365,23.0,-99999.0,'11111222,11111222,99999999' 
WAVCIS,ioos:station:WAVCIS:CSI10A:1,2019-09-06T17:06:06Z,28.9192,-90.7744,6.4,170.1,19.2,-99999.0,'11111222,11111222,99999999' 
WAVCIS,ioos:station:WAVCIS:CSI10A:1,2019-09-06T18:06:06Z,28.9192,-90.7744,6.4,151.615,19.1,-99999.0,'11111222,11111222,99999999' 
WAVCIS,ioos:station:WAVCIS:CSI10A:1,2019-09-06T19:06:06Z,28.9192,-90.7744,6.4,163.913,25.0,-99999.0,'11111222,11111222,99999999' 
WAVCIS,ioos:station:WAVCIS:CSI10A:1,2019-09-06T20:06:06Z,28.9192,-90.7744,6.4,148.375,17.7,-99999.0,'11111222,11111222,99999999' 
WAVCIS,ioos:station:WAVCIS:CSI10A:1,2019-09-06T21:06:06Z,28.9192,-90.7744,6.4,120.186,14.1,-99999.0,'11111222,11111222,99999999' 
WAVCIS,ioos:station:WAVCIS:CSI10A:1,2019-09-06T22:06:06Z,28.9192,-90.7744,6.4,111.682,14.3,-99999.0,'11111222,11111222,99999999' 
WAVCIS,ioos:station:WAVCIS:CSI10A:1,2019-09-06T23:06:06Z,28.9192,-90.7744,6.4,105.439,19.6,-99999.0,'11111222,11111222,99999999' 
WAVCIS,ioos:station:WAVCIS:CSI10A:1,2019-09-07T00:06:06Z,28.9192,-90.7744,6.4,114.874,24.0,-99999.0,'11111222,11111222,99999999' 
WAVCIS,ioos:station:WAVCIS:CSI10A:1,2019-09-07T01:06:06Z,28.9192,-90.7744,6.4,85.592,23.1,-99999.0,'11111222,11111222,99999999' 
WAVCIS,ioos:station:WAVCIS:CSI10A:1,2019-09-07T02:06:06Z,28.9192,-90.7744,6.4,74.414,23.2,-99999.0,'11111222,11111222,99999999' 
WAVCIS,ioos:station:WAVCIS:CSI10A:1,2019-09-07T03:06:06Z,28.9192,-90.7744,6.4,92.172,25.3,-99999.0,'11111222,11111222,99999999' 
WAVCIS,ioos:station:WAVCIS:CSI10A:1,2019-09-07T04:06:06Z,28.9192,-90.7744,6.4,109.929,27.4,-99999.0,'11111222,11111222,99999999' 
WAVCIS,ioos:station:WAVCIS:CSI10A:1,2019-09-07T05:06:06Z,28.9192,-90.7744,6.4,116.728,27.3,-99999.0,'11111222,11111222,99999999' 
 
DISCLAIMER: The Gulf of Mexico Coastal and Ocean Observing (GCOOS) Data Portal aggregates data from the regional data providers for the convenience of all data users. Data published on this website should not be used for navigation or certain other uses as we cannot guarantee data accuracy or availability. The data and delivery services are provided 'as is' without warranty of any kind. Data Source: Gulf of Mexico Coastal Ocean Observing System Data Portal (http://data.gcoos.org/) 
